When you browse on this site, cookies collect data to enhance your experience and personalize the content and advertising you see.
Visit our Privacy Policy to learn more. By continuing to use the site, you agree to this use of cookies and data.
  • In Romania
  • List of Countries
  • For 7 days
  • Water Temperature
  • Weather Map
  • Weather Widgets
  • user-avatar
    Login

    Hourly Weather Columbia

    Today, 30 March, Monday

    Time Temperature Precipitation Wind Pressure Humidity
    00:00 +20°C° 0 mm 4 mps 755 mmHg 62%
    01:00 +19°C° 0 mm 4 mps 756 mmHg 57%
    02:00 +19°C° 0 mm 3 mps 756 mmHg 56%
    03:00 +18°C° 0 mm 3 mps 755 mmHg 55%
    04:00 +17°C° 0 mm 2 mps 755 mmHg 54%
    05:00 +17°C° 0 mm 2 mps 756 mmHg 57%
    06:00 +17°C° 0 mm 2 mps 756 mmHg 59%
    07:00 +17°C° 0 mm 2 mps 757 mmHg 62%
    08:00 +18°C° 0 mm 2 mps 757 mmHg 56%
    09:00 +20°C° 0 mm 2 mps 757 mmHg 50%
    10:00 +21°C° 0 mm 2 mps 758 mmHg 44%
    11:00 +23°C° 0 mm 1 mps 757 mmHg 41%
    12:00 +24°C° 0 mm 1 mps 757 mmHg 38%
    13:00 +25°C° 0 mm 1 mps 756 mmHg 35%
    14:00 +25°C° 0 mm 1 mps 756 mmHg 35%
    15:00 +25°C° 0 mm 1 mps 755 mmHg 35%
    16:00 +25°C° 0 mm 2 mps 754 mmHg 35%
    17:00 +24°C° 0 mm 2 mps 754 mmHg 41%
    18:00 +23°C° 0 mm 2 mps 754 mmHg 46%
    19:00 +20°C° 0 mm 2 mps 754 mmHg 51%
    20:00 +20°C° 0 mm 2 mps 754 mmHg 52%
    21:00 +20°C° 0 mm 1 mps 754 mmHg 52%
    22:00 +20°C° 0 mm 1 mps 754 mmHg 53%
    23:00 +19°C° 0 mm 1 mps 753 mmHg 57%

    Tomorrow, 31 March, Tuesday

    Time Temperature Precipitation Wind Pressure Humidity
    00:00 +18°C° 0 mm 1 mps 753 mmHg 60%
    01:00 +18°C° 0 mm 1 mps 753 mmHg 64%
    02:00 +17°C° 0 mm 2 mps 753 mmHg 62%
    03:00 +16°C° 0 mm 2 mps 753 mmHg 59%
    04:00 +16°C° 0 mm 3 mps 753 mmHg 57%
    05:00 +16°C° 0 mm 3 mps 753 mmHg 56%
    06:00 +15°C° 0 mm 2 mps 752 mmHg 56%
    07:00 +15°C° 0 mm 2 mps 752 mmHg 55%
    08:00 +14°C° 0.2 mm 3 mps 752 mmHg 59%
    09:00 +13°C° 0.2 mm 3 mps 752 mmHg 62%
    10:00 +13°C° 0.2 mm 3 mps 751 mmHg 66%
    11:00 +14°C° 0 mm 4 mps 751 mmHg 64%
    12:00 +15°C° 0 mm 4 mps 750 mmHg 61%
    13:00 +15°C° 0 mm 4 mps 750 mmHg 59%
    14:00 +14°C° 1.3 mm 4 mps 749 mmHg 68%
    15:00 +13°C° 1.3 mm 4 mps 748 mmHg 78%
    16:00 +11°C° 1.3 mm 4 mps 746 mmHg 87%
    17:00 +11°C° 4.9 mm 4 mps 746 mmHg 89%
    18:00 +9°C° 4.9 mm 5 mps 746 mmHg 90%
    19:00 +9°C° 4.9 mm 5 mps 746 mmHg 92%
    20:00 +9°C° 0 mm 5 mps 746 mmHg 92%
    21:00 +10°C° 0 mm 4 mps 746 mmHg 91%
    22:00 +10°C° 0 mm 3 mps 746 mmHg 91%
    23:00 +10°C° 0.2 mm 3 mps 746 mmHg 91%

    Day after tomorrow, 1 April, Wednesday

    Time Temperature Precipitation Wind Pressure Humidity
    00:00 +10°C° 0.2 mm 3 mps 747 mmHg 90%
    01:00 +10°C° 0.2 mm 3 mps 747 mmHg 90%
    02:00 +10°C° 0 mm 3 mps 747 mmHg 90%
    03:00 +10°C° 0 mm 3 mps 747 mmHg 90%
    04:00 +10°C° 0 mm 3 mps 748 mmHg 90%
    05:00 +9°C° 0 mm 3 mps 748 mmHg 90%
    06:00 +9°C° 0 mm 3 mps 749 mmHg 90%
    07:00 +9°C° 0 mm 3 mps 750 mmHg 90%
    08:00 +10°C° 0 mm 3 mps 750 mmHg 83%
    09:00 +12°C° 0 mm 3 mps 750 mmHg 76%
    10:00 +13°C° 0 mm 3 mps 751 mmHg 69%
    11:00 +14°C° 0 mm 3 mps 751 mmHg 63%
    12:00 +16°C° 0 mm 3 mps 751 mmHg 57%
    13:00 +17°C° 0 mm 3 mps 751 mmHg 51%
    14:00 +17°C° 0 mm 3 mps 751 mmHg 51%
    15:00 +17°C° 0 mm 3 mps 751 mmHg 51%
    16:00 +17°C° 0 mm 2 mps 751 mmHg 51%
    17:00 +16°C° 0 mm 2 mps 751 mmHg 55%
    18:00 +15°C° 0 mm 2 mps 752 mmHg 58%
    19:00 +14°C° 0 mm 1 mps 752 mmHg 62%
    20:00 +14°C° 0 mm 1 mps 753 mmHg 62%
    21:00 +13°C° 0 mm 1 mps 753 mmHg 63%
    22:00 +13°C° 0 mm 1 mps 754 mmHg 63%
    23:00 +12°C° 0 mm 2 mps 754 mmHg 64%

    2 April, Thursday

    Time Temperature Precipitation Wind Pressure Humidity
    00:00 +10°C° 0 mm 2 mps 754 mmHg 65%
    01:00 +9°C° 0 mm 2 mps 754 mmHg 67%
    02:00 +9°C° 0 mm 2 mps 754 mmHg 67%
    03:00 +8°C° 0 mm 2 mps 754 mmHg 67%
    04:00 +8°C° 0 mm 2 mps 754 mmHg 67%
    05:00 +8°C° 0 mm 2 mps 755 mmHg 67%
    06:00 +8°C° 0 mm 2 mps 755 mmHg 68%
    07:00 +8°C° 0 mm 2 mps 755 mmHg 69%
    08:00 +10°C° 0 mm 2 mps 755 mmHg 62%
    09:00 +13°C° 0 mm 2 mps 756 mmHg 55%
    10:00 +15°C° 0 mm 2 mps 756 mmHg 48%
    11:00 +17°C° 0 mm 2 mps 755 mmHg 45%
    12:00 +18°C° 0 mm 2 mps 755 mmHg 43%
    13:00 +19°C° 0 mm 2 mps 755 mmHg 40%
    14:00 +20°C° 0 mm 2 mps 754 mmHg 40%
    15:00 +20°C° 0 mm 2 mps 754 mmHg 39%
    16:00 +21°C° 0 mm 2 mps 753 mmHg 39%
    17:00 +19°C° 0 mm 2 mps 753 mmHg 45%
    18:00 +18°C° 0 mm 1 mps 753 mmHg 51%
    19:00 +16°C° 0 mm 1 mps 754 mmHg 58%
    20:00 +15°C° 0 mm 1 mps 754 mmHg 61%
    21:00 +14°C° 0 mm 1 mps 754 mmHg 63%
    22:00 +14°C° 0 mm 1 mps 754 mmHg 66%
    23:00 +13°C° 0 mm 1 mps 754 mmHg 68%

    3 April, Friday

    Time Temperature Precipitation Wind Pressure Humidity
    00:00 +13°C° 0 mm 1 mps 755 mmHg 69%
    01:00 +13°C° 0 mm 1 mps 755 mmHg 71%
    02:00 +12°C° 0 mm 1 mps 754 mmHg 71%
    03:00 +11°C° 0 mm 1 mps 754 mmHg 71%
    04:00 +10°C° 0 mm 2 mps 754 mmHg 71%
    05:00 +10°C° 0 mm 2 mps 755 mmHg 68%
    06:00 +10°C° 0 mm 2 mps 755 mmHg 65%
    07:00 +10°C° 0 mm 2 mps 755 mmHg 63%
    08:00 +13°C° 0 mm 2 mps 755 mmHg 54%
    09:00 +15°C° 0 mm 2 mps 755 mmHg 45%
    10:00 +17°C° 0 mm 2 mps 755 mmHg 37%
    11:00 +20°C° 0 mm 1 mps 755 mmHg 36%
    12:00 +22°C° 0 mm 1 mps 755 mmHg 35%
    13:00 +22°C° 0 mm 0 mps 755 mmHg 35%
    14:00 +22°C° 0 mm 0 mps 754 mmHg 35%
    15:00 +22°C° 0 mm 0 mps 754 mmHg 35%
    16:00 +24°C° 0 mm 1 mps 753 mmHg 36%
    17:00 +22°C° 0 mm 1 mps 753 mmHg 41%
    18:00 +20°C° 0 mm 1 mps 754 mmHg 46%
    19:00 +19°C° 0 mm 1 mps 754 mmHg 52%
    20:00 +18°C° 0 mm 1 mps 754 mmHg 54%
    21:00 +16°C° 0 mm 2 mps 754 mmHg 56%
    22:00 +15°C° 0 mm 2 mps 755 mmHg 59%
    23:00 +14°C° 0 mm 2 mps 755 mmHg 60%

    4 April, Saturday

    Time Temperature Precipitation Wind Pressure Humidity
    00:00 +14°C° 0 mm 2 mps 755 mmHg 62%
    01:00 +13°C° 0 mm 2 mps 755 mmHg 64%
    02:00 +13°C° 0 mm 2 mps 755 mmHg 67%
    03:00 +13°C° 0 mm 1 mps 755 mmHg 71%
    04:00 +12°C° 0 mm 1 mps 755 mmHg 74%
    05:00 +13°C° 0 mm 2 mps 755 mmHg 75%
    06:00 +13°C° 0 mm 2 mps 756 mmHg 75%
    07:00 +13°C° 0 mm 2 mps 756 mmHg 76%
    08:00 +15°C° 0 mm 2 mps 756 mmHg 69%
    09:00 +17°C° 0 mm 3 mps 756 mmHg 63%
    10:00 +20°C° 0 mm 3 mps 756 mmHg 57%
    11:00 +20°C° 0 mm 3 mps 756 mmHg 59%
    12:00 +20°C° 0 mm 2 mps 756 mmHg 61%
    13:00 +20°C° 0 mm 2 mps 756 mmHg 63%
    14:00 +20°C° 0.1 mm 2 mps 755 mmHg 65%
    15:00 +20°C° 0.1 mm 2 mps 755 mmHg 68%
    16:00 +19°C° 0.1 mm 2 mps 755 mmHg 71%
    17:00 +19°C° 0 mm 3 mps 755 mmHg 74%
    18:00 +18°C° 0 mm 3 mps 755 mmHg 78%
    19:00 +17°C° 0 mm 3 mps 755 mmHg 82%
    20:00 +16°C° 0 mm 3 mps 755 mmHg 82%
    21:00 +16°C° 0 mm 3 mps 756 mmHg 83%
    22:00 +15°C° 0 mm 2 mps 756 mmHg 83%
    23:00 +15°C° 0 mm 2 mps 756 mmHg 85%
    Show more